TUI18H EDDF-LGIR

Flight info

Callsign TUI18H
Flight time 2h 56m
Altitude 35000
Route CINDY8S/18 CINDY Z74 LAMPU DCT NOMBO Y161 MAH DCT VAVOR DCT RADIZ DCT PINDO DCT KEA UL607 GIVIS T514 XAVIS
Aircraft B738/M-SDE2E3FGHIRWXY/LB1

Departure

Time 2026-05-07 14:03
Airport Frankfurt Main Airport (EDDF)

Arrival

Time 2026-05-07 16:59
Airport Heraklion International Nikos Kazantzakis Airport (LGIR)
Time Latitude Longitude Altitude Speed Heading
2026-05-07 13:34 50.04848 8.58902 364 ft 0 kts 340°
2026-05-07 13:46 50.04844 8.58905 367 ft 3 kts 340°
2026-05-07 13:46 50.04820 8.58919 367 ft 4 kts 340°
2026-05-07 13:47 50.04794 8.58933 366 ft 4 kts 340°
2026-05-07 13:47 50.04773 8.58945 368 ft 0 kts 340°
2026-05-07 13:50 50.04774 8.58942 368 ft 0 kts 318°
2026-05-07 13:51 50.04771 8.58930 367 ft 3 kts 243°
2026-05-07 13:51 50.04751 8.58870 369 ft 10 kts 246°
2026-05-07 13:51 50.04757 8.58763 373 ft 12 kts 322°
2026-05-07 13:51 50.04836 8.58713 363 ft 13 kts 340°
2026-05-07 13:52 50.04921 8.58653 362 ft 14 kts 316°
2026-05-07 13:52 50.04912 8.58511 361 ft 14 kts 249°
2026-05-07 13:52 50.04880 8.58378 363 ft 13 kts 249°
2026-05-07 13:52 50.04849 8.58247 359 ft 13 kts 250°
2026-05-07 13:53 50.04819 8.58119 359 ft 13 kts 249°
2026-05-07 13:53 50.04782 8.57990 357 ft 13 kts 229°
2026-05-07 13:53 50.04715 8.57900 363 ft 13 kts 228°
2026-05-07 13:53 50.04677 8.57770 360 ft 16 kts 249°
2026-05-07 13:54 50.04632 8.57585 358 ft 21 kts 249°
2026-05-07 13:54 50.04577 8.57356 360 ft 23 kts 250°
2026-05-07 13:54 50.04524 8.57130 359 ft 22 kts 250°
2026-05-07 13:54 50.04471 8.56909 363 ft 22 kts 250°
2026-05-07 13:55 50.04420 8.56695 358 ft 21 kts 250°
2026-05-07 13:55 50.04370 8.56486 360 ft 21 kts 250°
2026-05-07 13:55 50.04317 8.56264 357 ft 23 kts 250°
2026-05-07 13:55 50.04257 8.56015 359 ft 25 kts 249°
2026-05-07 13:56 50.04198 8.55768 352 ft 23 kts 249°
2026-05-07 13:56 50.04144 8.55540 350 ft 23 kts 250°
2026-05-07 13:56 50.04089 8.55309 355 ft 24 kts 249°
2026-05-07 13:56 50.04026 8.55050 354 ft 27 kts 249°
2026-05-07 13:57 50.03962 8.54782 353 ft 26 kts 249°
2026-05-07 13:57 50.03902 8.54531 352 ft 24 kts 249°
2026-05-07 13:57 50.03831 8.54307 349 ft 23 kts 234°
2026-05-07 13:57 50.03767 8.54088 346 ft 22 kts 249°
2026-05-07 13:58 50.03715 8.53866 347 ft 21 kts 250°
2026-05-07 13:58 50.03663 8.53652 338 ft 21 kts 248°
2026-05-07 13:58 50.03611 8.53444 337 ft 20 kts 250°
2026-05-07 13:58 50.03563 8.53243 336 ft 20 kts 249°
2026-05-07 13:59 50.03515 8.53047 335 ft 20 kts 249°
2026-05-07 13:59 50.03464 8.52848 336 ft 16 kts 246°
2026-05-07 13:59 50.03440 8.52754 332 ft 3 kts 249°
2026-05-07 13:59 50.03437 8.52743 332 ft 0 kts 249°
2026-05-07 14:00 50.03436 8.52738 335 ft 2 kts 249°
2026-05-07 14:00 50.03417 8.52662 332 ft 13 kts 247°
2026-05-07 14:00 50.03352 8.52594 334 ft 2 kts 180°
2026-05-07 14:02 50.03335 8.52594 334 ft 10 kts 180°
2026-05-07 14:02 50.03092 8.52597 334 ft 71 kts 180°
2026-05-07 14:02 50.02480 8.52606 334 ft 126 kts 179°
2026-05-07 14:03 49.99905 8.52603 1034 ft 181 kts 181°
2026-05-07 14:03 49.98664 8.52601 1686 ft 183 kts 182°
2026-05-07 14:04 49.97366 8.52664 2252 ft 195 kts 168°
2026-05-07 14:04 49.96191 8.53832 2479 ft 220 kts 124°
2026-05-07 14:04 49.95411 8.55980 2907 ft 231 kts 118°
2026-05-07 14:04 49.94628 8.58189 3473 ft 236 kts 118°
2026-05-07 14:05 49.94005 8.60557 3974 ft 244 kts 98°
2026-05-07 14:05 49.93894 8.63172 3987 ft 247 kts 91°
2026-05-07 14:05 49.93820 8.65881 3986 ft 262 kts 91°
2026-05-07 14:05 49.93605 8.68683 3988 ft 271 kts 109°
2026-05-07 14:06 49.92519 8.71035 4008 ft 270 kts 142°
2026-05-07 14:06 49.90983 8.72716 4001 ft 272 kts 146°
2026-05-07 14:06 49.89423 8.74389 4023 ft 274 kts 146°
2026-05-07 14:06 49.88050 8.76429 4440 ft 278 kts 121°
2026-05-07 14:07 49.87218 8.78806 5355 ft 274 kts 118°
2026-05-07 14:07 49.86340 8.81287 6105 ft 277 kts 118°
2026-05-07 14:07 49.85394 8.83916 6842 ft 282 kts 119°
2026-05-07 14:07 49.84423 8.86595 7560 ft 286 kts 119°
2026-05-07 14:08 49.83443 8.89293 8354 ft 288 kts 119°
2026-05-07 14:08 49.82630 8.91530 8790 ft 291 kts 119°
2026-05-07 14:08 49.81632 8.94277 9033 ft 294 kts 119°
2026-05-07 14:08 49.80624 8.97050 9024 ft 296 kts 119°
2026-05-07 14:09 49.79616 8.99819 9034 ft 293 kts 120°
2026-05-07 14:09 49.78617 9.02561 9048 ft 291 kts 120°
2026-05-07 14:09 49.77624 9.05281 9031 ft 290 kts 120°
2026-05-07 14:09 49.76633 9.07993 9043 ft 290 kts 119°
2026-05-07 14:10 49.75833 9.10848 9030 ft 290 kts 103°
2026-05-07 14:10 49.75396 9.13897 9042 ft 291 kts 102°
2026-05-07 14:10 49.74957 9.16929 9161 ft 295 kts 103°
2026-05-07 14:10 49.74149 9.19851 9760 ft 300 kts 128°
2026-05-07 14:11 49.72787 9.22295 10478 ft 303 kts 132°
2026-05-07 14:11 49.71325 9.24812 10681 ft 326 kts 132°
2026-05-07 14:11 49.69764 9.27503 10862 ft 347 kts 132°
2026-05-07 14:11 49.68109 9.30374 11095 ft 366 kts 132°
2026-05-07 14:12 49.66401 9.33355 11629 ft 373 kts 131°
2026-05-07 14:12 49.64678 9.36367 12319 ft 376 kts 131°
2026-05-07 14:12 49.62939 9.39397 13021 ft 379 kts 133°
2026-05-07 14:12 49.60991 9.42168 13686 ft 382 kts 144°
2026-05-07 14:13 49.58746 9.44375 14304 ft 385 kts 150°
2026-05-07 14:13 49.56419 9.46463 14895 ft 388 kts 151°
2026-05-07 14:13 49.54079 9.48551 15527 ft 390 kts 151°
2026-05-07 14:13 49.51724 9.50667 16106 ft 394 kts 151°
2026-05-07 14:14 49.49424 9.52749 16653 ft 398 kts 151°
2026-05-07 14:14 49.47028 9.54929 17218 ft 402 kts 150°
2026-05-07 14:14 49.44609 9.57136 17790 ft 406 kts 150°
2026-05-07 14:14 49.42175 9.59358 18354 ft 409 kts 151°
2026-05-07 14:15 49.39717 9.61599 18856 ft 412 kts 151°
2026-05-07 14:15 49.37240 9.63854 19365 ft 415 kts 151°
2026-05-07 14:15 49.34763 9.66143 19852 ft 418 kts 148°
2026-05-07 14:15 49.32460 9.68913 20288 ft 424 kts 137°
2026-05-07 14:16 49.30368 9.72116 20765 ft 427 kts 136°
2026-05-07 14:16 49.28280 9.75388 21232 ft 430 kts 136°
2026-05-07 14:16 49.26177 9.78680 21695 ft 433 kts 136°
2026-05-07 14:16 49.24047 9.81982 22102 ft 438 kts 136°
2026-05-07 14:17 49.21914 9.85260 22446 ft 443 kts 136°
2026-05-07 14:17 49.19726 9.88601 22919 ft 445 kts 136°
2026-05-07 14:17 49.17555 9.91903 23371 ft 447 kts 136°
2026-05-07 14:17 49.15408 9.95162 23752 ft 450 kts 136°
2026-05-07 14:18 49.13185 9.98531 24103 ft 452 kts 136°
2026-05-07 14:18 49.11138 10.01633 24442 ft 454 kts 136°
2026-05-07 14:18 49.08892 10.05032 24809 ft 455 kts 136°
2026-05-07 14:18 49.06635 10.08442 25194 ft 456 kts 136°
2026-05-07 14:19 49.04346 10.11815 25582 ft 458 kts 138°
2026-05-07 14:19 49.01999 10.15107 25925 ft 459 kts 139°
2026-05-07 14:19 48.99631 10.18385 26220 ft 463 kts 139°
2026-05-07 14:19 48.97248 10.21711 26451 ft 467 kts 138°
2026-05-07 14:20 48.94858 10.25067 26807 ft 468 kts 138°
2026-05-07 14:20 48.92468 10.28437 27175 ft 469 kts 138°
2026-05-07 14:20 48.90104 10.31771 27499 ft 470 kts 138°
2026-05-07 14:20 48.87699 10.35160 27801 ft 472 kts 138°
2026-05-07 14:21 48.85282 10.38556 28093 ft 474 kts 138°
2026-05-07 14:21 48.82857 10.41970 28375 ft 476 kts 137°
2026-05-07 14:21 48.80532 10.45536 28703 ft 477 kts 134°
2026-05-07 14:21 48.78326 10.49162 29053 ft 477 kts 133°
2026-05-07 14:22 48.76112 10.52835 29472 ft 475 kts 133°
2026-05-07 14:22 48.73888 10.56465 29784 ft 476 kts 134°
2026-05-07 14:22 48.71612 10.60096 30097 ft 477 kts 134°
2026-05-07 14:22 48.69300 10.63699 30440 ft 475 kts 135°
2026-05-07 14:23 48.66996 10.67279 30794 ft 473 kts 135°
2026-05-07 14:23 48.64708 10.70852 31114 ft 472 kts 135°
2026-05-07 14:23 48.62445 10.74459 31391 ft 472 kts 134°
2026-05-07 14:23 48.60191 10.78070 31667 ft 472 kts 134°
2026-05-07 14:24 48.57935 10.81677 31967 ft 471 kts 134°
2026-05-07 14:24 48.55689 10.85274 32280 ft 470 kts 134°
2026-05-07 14:24 48.53452 10.88861 32573 ft 469 kts 135°
2026-05-07 14:24 48.51214 10.92442 32869 ft 468 kts 135°
2026-05-07 14:25 48.49005 10.95968 33144 ft 468 kts 135°
2026-05-07 14:25 48.46752 10.99516 33401 ft 468 kts 136°
2026-05-07 14:25 48.44595 11.02873 33638 ft 467 kts 136°
2026-05-07 14:25 48.42331 11.06382 33928 ft 467 kts 136°
2026-05-07 14:26 48.40067 11.09889 34170 ft 467 kts 136°
2026-05-07 14:26 48.37805 11.13395 34336 ft 468 kts 136°
2026-05-07 14:26 48.35533 11.16917 34493 ft 468 kts 136°
2026-05-07 14:26 48.33266 11.20431 34687 ft 468 kts 136°
2026-05-07 14:27 48.30994 11.23950 34893 ft 467 kts 137°
2026-05-07 14:27 48.28955 11.27102 35038 ft 468 kts 137°
2026-05-07 14:27 48.26721 11.30674 35011 ft 472 kts 132°
2026-05-07 14:28 48.23156 11.38955 35026 ft 472 kts 122°
2026-05-07 14:28 48.19968 11.47462 35018 ft 470 kts 122°
2026-05-07 14:29 48.16730 11.55971 35018 ft 468 kts 122°
2026-05-07 14:29 48.13473 11.64382 35010 ft 467 kts 123°
2026-05-07 14:30 48.10195 11.72787 35017 ft 467 kts 123°
2026-05-07 14:30 48.06914 11.81177 35016 ft 468 kts 123°
2026-05-07 14:31 48.03619 11.89583 35018 ft 470 kts 123°
2026-05-07 14:31 48.00301 11.98024 34994 ft 472 kts 123°
2026-05-07 14:32 47.97091 12.06169 35009 ft 473 kts 123°
2026-05-07 14:32 47.94227 12.13246 35008 ft 473 kts 129°
2026-05-07 14:33 47.89778 12.20290 35016 ft 465 kts 144°
2026-05-07 14:33 47.84762 12.26414 35018 ft 467 kts 144°
2026-05-07 14:34 47.80033 12.32229 35010 ft 467 kts 143°
2026-05-07 14:34 47.75040 12.38442 34992 ft 467 kts 143°
2026-05-07 14:35 47.70066 12.44638 35005 ft 467 kts 143°
2026-05-07 14:35 47.65091 12.50815 35007 ft 466 kts 143°
2026-05-07 14:36 47.60173 12.57091 35009 ft 467 kts 141°
2026-05-07 14:36 47.55440 12.63686 34993 ft 467 kts 140°
2026-05-07 14:37 47.50777 12.70273 34988 ft 466 kts 140°
2026-05-07 14:37 47.43698 12.80139 34996 ft 466 kts 141°
2026-05-07 14:38 47.38965 12.86674 35012 ft 466 kts 141°
2026-05-07 14:38 47.34222 12.93198 35014 ft 466 kts 141°
2026-05-07 14:39 47.29475 12.99711 35016 ft 465 kts 141°
2026-05-07 14:39 47.24833 13.06070 34988 ft 466 kts 141°
2026-05-07 14:40 47.20090 13.12547 35006 ft 465 kts 142°
2026-05-07 14:40 47.15329 13.19032 34999 ft 467 kts 142°
2026-05-07 14:41 47.10564 13.25507 34985 ft 466 kts 142°
2026-05-07 14:41 47.05797 13.31969 34985 ft 466 kts 142°
2026-05-07 14:42 47.01024 13.38423 34971 ft 466 kts 142°
2026-05-07 14:42 46.96266 13.44840 34965 ft 467 kts 142°
2026-05-07 14:43 46.91480 13.51278 34964 ft 468 kts 143°
2026-05-07 14:43 46.86675 13.57723 34961 ft 469 kts 143°
2026-05-07 14:44 46.81861 13.64164 34946 ft 470 kts 143°
2026-05-07 14:44 46.77039 13.70603 34935 ft 469 kts 143°
2026-05-07 14:45 46.72275 13.76950 34912 ft 467 kts 143°
2026-05-07 14:45 46.67506 13.83286 34918 ft 463 kts 143°
2026-05-07 14:46 46.62754 13.89583 34938 ft 463 kts 143°
2026-05-07 14:46 46.57949 13.95920 34935 ft 469 kts 143°
2026-05-07 14:47 46.53309 14.02035 34920 ft 472 kts 143°
2026-05-07 14:47 46.48457 14.08422 34907 ft 470 kts 144°
2026-05-07 14:48 46.43587 14.14812 34926 ft 472 kts 144°
2026-05-07 14:48 46.38744 14.21149 34907 ft 470 kts 144°
2026-05-07 14:49 46.33933 14.27439 34920 ft 463 kts 144°
2026-05-07 14:49 46.29157 14.33656 34932 ft 462 kts 144°
2026-05-07 14:50 46.24380 14.39856 34929 ft 461 kts 145°
2026-05-07 14:50 46.19606 14.46039 34940 ft 461 kts 145°
2026-05-07 14:51 46.14827 14.52215 34935 ft 461 kts 145°
2026-05-07 14:51 46.10032 14.58396 34943 ft 462 kts 145°
2026-05-07 14:52 46.05236 14.64564 34943 ft 463 kts 145°
2026-05-07 14:52 46.00428 14.70735 34944 ft 464 kts 145°
2026-05-07 14:53 45.95916 14.76510 34953 ft 465 kts 145°
2026-05-07 14:53 45.91163 14.82580 34962 ft 465 kts 145°
2026-05-07 14:54 45.86317 14.88753 34967 ft 466 kts 145°
2026-05-07 14:54 45.81453 14.94936 34971 ft 467 kts 145°
2026-05-07 14:55 45.76843 15.00782 34963 ft 468 kts 145°
2026-05-07 14:55 45.72773 15.05931 34985 ft 466 kts 145°
2026-05-07 14:56 45.68238 15.11658 34970 ft 466 kts 145°
2026-05-07 14:56 45.63403 15.17749 34983 ft 465 kts 145°
2026-05-07 14:57 45.58543 15.23855 34983 ft 465 kts 145°
2026-05-07 14:57 45.53683 15.29948 34985 ft 465 kts 145°
2026-05-07 14:58 45.48820 15.36028 34977 ft 466 kts 146°
2026-05-07 14:58 45.43943 15.42112 34994 ft 466 kts 146°
2026-05-07 14:59 45.39055 15.48195 34993 ft 467 kts 146°
2026-05-07 14:59 45.34154 15.54280 34991 ft 468 kts 146°
2026-05-07 15:00 45.29272 15.60326 34981 ft 469 kts 146°
2026-05-07 15:00 45.24348 15.66412 34991 ft 469 kts 146°
2026-05-07 15:01 45.19412 15.72498 34992 ft 470 kts 146°
2026-05-07 15:01 45.14465 15.78581 34999 ft 471 kts 146°
2026-05-07 15:02 45.09496 15.84677 35011 ft 472 kts 146°
2026-05-07 15:02 45.04524 15.90763 34964 ft 472 kts 146°
2026-05-07 15:03 44.99782 15.96556 35001 ft 471 kts 146°
2026-05-07 15:03 44.94937 16.02458 35004 ft 471 kts 146°
2026-05-07 15:04 44.89976 16.08489 35015 ft 471 kts 146°
2026-05-07 15:04 44.85006 16.14514 35005 ft 471 kts 146°
2026-05-07 15:05 44.80037 16.20525 34987 ft 471 kts 145°
2026-05-07 15:05 44.75091 16.26496 35005 ft 469 kts 145°
2026-05-07 15:06 44.70134 16.32464 35015 ft 469 kts 146°
2026-05-07 15:06 44.65172 16.38424 35031 ft 469 kts 146°
2026-05-07 15:07 44.60205 16.44375 35010 ft 470 kts 145°
2026-05-07 15:07 44.55219 16.50335 35012 ft 471 kts 145°
2026-05-07 15:08 44.50233 16.56283 35020 ft 472 kts 145°
2026-05-07 15:08 44.45264 16.62199 35041 ft 473 kts 146°
2026-05-07 15:09 44.40258 16.68141 35037 ft 474 kts 146°
2026-05-07 15:09 44.35231 16.74096 35045 ft 474 kts 146°
2026-05-07 15:10 44.30214 16.80025 35050 ft 473 kts 146°
2026-05-07 15:10 44.25198 16.85941 35055 ft 473 kts 146°
2026-05-07 15:11 44.20168 16.91859 35058 ft 473 kts 146°
2026-05-07 15:11 44.15143 16.97756 35055 ft 472 kts 146°
2026-05-07 15:12 44.10222 17.03518 35073 ft 472 kts 146°
2026-05-07 15:12 44.05217 17.09365 35060 ft 472 kts 146°
2026-05-07 15:13 44.00203 17.15211 35081 ft 471 kts 146°
2026-05-07 15:13 43.95237 17.20986 35066 ft 470 kts 146°
2026-05-07 15:14 43.90223 17.26804 35089 ft 470 kts 146°
2026-05-07 15:14 43.85197 17.32622 35068 ft 470 kts 146°
2026-05-07 15:15 43.80176 17.38420 35095 ft 470 kts 146°
2026-05-07 15:15 43.75159 17.44202 35084 ft 471 kts 146°
2026-05-07 15:16 43.70143 17.49970 35085 ft 471 kts 146°
2026-05-07 15:16 43.65088 17.55769 35089 ft 472 kts 146°
2026-05-07 15:17 43.60028 17.61561 35073 ft 473 kts 147°
2026-05-07 15:17 43.54958 17.67352 35106 ft 473 kts 147°
2026-05-07 15:18 43.49866 17.73153 35095 ft 475 kts 147°
2026-05-07 15:18 43.44771 17.78946 35089 ft 475 kts 147°
2026-05-07 15:19 43.39662 17.84742 35072 ft 476 kts 147°
2026-05-07 15:19 43.34542 17.90537 35084 ft 477 kts 147°
2026-05-07 15:20 43.29431 17.96309 35076 ft 478 kts 147°
2026-05-07 15:20 43.24435 18.01938 35077 ft 478 kts 147°
2026-05-07 15:21 43.19292 18.07722 35075 ft 477 kts 147°
2026-05-07 15:21 43.15027 18.12507 35054 ft 476 kts 147°
2026-05-07 15:22 43.09074 18.19172 35089 ft 475 kts 147°
2026-05-07 15:22 43.04791 18.23956 35086 ft 474 kts 147°
2026-05-07 15:23 42.99718 18.29610 35085 ft 473 kts 147°
2026-05-07 15:23 42.94625 18.35275 35091 ft 472 kts 147°
2026-05-07 15:24 42.89553 18.40902 35086 ft 473 kts 147°
2026-05-07 15:24 42.84428 18.46576 35074 ft 475 kts 147°
2026-05-07 15:25 42.79279 18.52264 35093 ft 477 kts 147°
2026-05-07 15:25 42.74102 18.57971 35081 ft 480 kts 147°
2026-05-07 15:26 42.68898 18.63695 35073 ft 482 kts 147°
2026-05-07 15:26 42.63670 18.69435 35075 ft 483 kts 147°
2026-05-07 15:27 42.58441 18.75161 35072 ft 485 kts 147°
2026-05-07 15:27 42.53266 18.80817 35075 ft 485 kts 146°
2026-05-07 15:28 42.48019 18.86539 35091 ft 482 kts 146°
2026-05-07 15:28 42.42816 18.92201 35065 ft 483 kts 147°
2026-05-07 15:29 42.37577 18.97887 35074 ft 483 kts 147°
2026-05-07 15:29 42.32417 19.03475 35075 ft 485 kts 147°
2026-05-07 15:30 42.27147 19.09169 35082 ft 486 kts 147°
2026-05-07 15:30 42.21865 19.14866 35068 ft 486 kts 146°
2026-05-07 15:31 42.16666 19.20551 35073 ft 487 kts 144°
2026-05-07 15:31 42.11615 19.26638 35070 ft 490 kts 143°
2026-05-07 15:32 42.06584 19.32847 35065 ft 490 kts 143°
2026-05-07 15:32 42.01535 19.39008 35072 ft 490 kts 143°
2026-05-07 15:33 41.96490 19.45096 35061 ft 489 kts 143°
2026-05-07 15:33 41.91414 19.51187 35053 ft 488 kts 143°
2026-05-07 15:34 41.86340 19.57260 35058 ft 489 kts 143°
2026-05-07 15:34 41.81655 19.62858 35055 ft 490 kts 143°
2026-05-07 15:35 41.76561 19.68935 35050 ft 491 kts 143°
2026-05-07 15:35 41.71454 19.75014 35048 ft 491 kts 143°
2026-05-07 15:36 41.66368 19.81055 35047 ft 492 kts 143°
2026-05-07 15:36 41.61233 19.87141 35052 ft 494 kts 144°
2026-05-07 15:37 41.56082 19.93228 35058 ft 495 kts 144°
2026-05-07 15:37 41.50924 19.99312 35074 ft 497 kts 144°
2026-05-07 15:38 41.45847 20.05291 35068 ft 498 kts 144°
2026-05-07 15:38 41.40640 20.11407 35067 ft 500 kts 144°
2026-05-07 15:39 41.35415 20.17530 35069 ft 501 kts 144°
2026-05-07 15:39 41.30161 20.23675 35083 ft 503 kts 144°
2026-05-07 15:40 41.24891 20.29824 35079 ft 504 kts 144°
2026-05-07 15:40 41.19616 20.35966 35090 ft 504 kts 144°
2026-05-07 15:41 41.14336 20.42100 35076 ft 505 kts 145°
2026-05-07 15:41 41.09066 20.48209 35123 ft 505 kts 144°
2026-05-07 15:42 41.03773 20.54330 35087 ft 505 kts 144°
2026-05-07 15:42 40.98517 20.60394 35098 ft 507 kts 144°
2026-05-07 15:43 40.93207 20.66507 35111 ft 505 kts 144°
2026-05-07 15:43 40.87922 20.72580 35116 ft 505 kts 144°
2026-05-07 15:44 40.82614 20.78665 35109 ft 505 kts 144°
2026-05-07 15:44 40.77295 20.84747 35117 ft 506 kts 144°
2026-05-07 15:45 40.72027 20.90762 35133 ft 502 kts 144°
2026-05-07 15:45 40.67619 20.95786 35095 ft 502 kts 144°
2026-05-07 15:46 40.59760 21.04697 35127 ft 511 kts 145°
2026-05-07 15:47 40.54373 21.10798 35119 ft 516 kts 144°
2026-05-07 15:47 40.48901 21.16992 35131 ft 513 kts 144°
2026-05-07 15:48 40.43586 21.23001 35109 ft 504 kts 144°
2026-05-07 15:48 40.38250 21.29005 35085 ft 508 kts 145°
2026-05-07 15:49 40.32836 21.35074 35114 ft 516 kts 145°
2026-05-07 15:49 40.27344 21.41224 35113 ft 520 kts 145°
2026-05-07 15:50 40.21835 21.47388 35121 ft 522 kts 145°
2026-05-07 15:50 40.16301 21.53566 35112 ft 524 kts 145°
2026-05-07 15:51 40.10761 21.59735 35103 ft 523 kts 145°
2026-05-07 15:51 40.05216 21.65896 35106 ft 523 kts 146°
2026-05-07 15:52 39.99687 21.72023 35104 ft 524 kts 146°
2026-05-07 15:52 39.94158 21.78134 35111 ft 525 kts 146°
2026-05-07 15:53 39.88592 21.84276 35106 ft 525 kts 145°
2026-05-07 15:53 39.83013 21.90420 35086 ft 525 kts 146°
2026-05-07 15:54 39.77425 21.96560 35077 ft 526 kts 146°
2026-05-07 15:54 39.71981 22.02529 35108 ft 525 kts 146°
2026-05-07 15:55 39.66365 22.08669 35095 ft 528 kts 146°
2026-05-07 15:55 39.60719 22.14826 35126 ft 531 kts 145°
2026-05-07 15:56 39.55073 22.20975 35082 ft 535 kts 146°
2026-05-07 15:56 39.49357 22.27186 35088 ft 538 kts 146°
2026-05-07 15:57 39.43597 22.33431 35089 ft 541 kts 146°
2026-05-07 15:57 39.37795 22.39708 35088 ft 544 kts 146°
2026-05-07 15:58 39.31986 22.45980 35062 ft 544 kts 146°
2026-05-07 15:58 39.26307 22.52097 35081 ft 543 kts 146°
2026-05-07 15:59 39.20511 22.58325 35083 ft 543 kts 146°
2026-05-07 15:59 39.14751 22.64502 35100 ft 541 kts 146°
2026-05-07 16:00 39.08972 22.70685 35101 ft 538 kts 146°
2026-05-07 16:00 39.03207 22.76841 35079 ft 537 kts 146°
2026-05-07 16:01 38.97491 22.82915 35121 ft 534 kts 146°
2026-05-07 16:01 38.91766 22.89006 35121 ft 534 kts 146°
2026-05-07 16:02 38.86021 22.95102 35123 ft 536 kts 146°
2026-05-07 16:02 38.80372 23.01082 35109 ft 538 kts 146°
2026-05-07 16:03 38.74580 23.07195 35108 ft 540 kts 146°
2026-05-07 16:03 38.68762 23.13324 35103 ft 543 kts 145°
2026-05-07 16:04 38.62912 23.19475 35109 ft 545 kts 145°
2026-05-07 16:04 38.57079 23.25595 35092 ft 546 kts 145°
2026-05-07 16:05 38.51217 23.31735 35080 ft 541 kts 146°
2026-05-07 16:05 38.45435 23.37779 35086 ft 541 kts 145°
2026-05-07 16:06 38.39595 23.43857 35117 ft 544 kts 145°
2026-05-07 16:06 38.33717 23.49968 35109 ft 545 kts 145°
2026-05-07 16:07 38.27825 23.56086 35101 ft 546 kts 145°
2026-05-07 16:07 38.21928 23.62196 35114 ft 546 kts 145°
2026-05-07 16:08 38.16069 23.68251 35102 ft 546 kts 145°
2026-05-07 16:08 38.10210 23.74293 35102 ft 544 kts 145°
2026-05-07 16:09 38.04440 23.80231 35110 ft 542 kts 145°
2026-05-07 16:09 37.98837 23.85985 35104 ft 539 kts 145°
2026-05-07 16:10 37.93018 23.91949 35120 ft 536 kts 145°
2026-05-07 16:10 37.88204 23.96871 35126 ft 535 kts 145°
2026-05-07 16:11 37.82652 24.02538 35126 ft 535 kts 145°
2026-05-07 16:11 37.76861 24.08437 35151 ft 535 kts 145°
2026-05-07 16:12 37.71057 24.14339 35139 ft 536 kts 145°
2026-05-07 16:12 37.65243 24.20239 35111 ft 536 kts 145°
2026-05-07 16:13 37.59421 24.26137 35129 ft 538 kts 145°
2026-05-07 16:13 37.53481 24.31871 35139 ft 536 kts 152°
2026-05-07 16:14 37.47151 24.36831 35134 ft 536 kts 154°
2026-05-07 16:14 37.40758 24.41682 35117 ft 537 kts 154°
2026-05-07 16:15 37.34377 24.46614 35128 ft 538 kts 153°
2026-05-07 16:15 37.28019 24.51589 35128 ft 538 kts 153°
2026-05-07 16:16 37.21710 24.56524 35128 ft 538 kts 153°
2026-05-07 16:16 37.15353 24.61477 35127 ft 538 kts 153°
2026-05-07 16:17 37.08997 24.66414 34948 ft 540 kts 153°
2026-05-07 16:17 37.05791 24.68899 34398 ft 543 kts 153°
2026-05-07 16:17 37.02575 24.71393 33790 ft 542 kts 153°
2026-05-07 16:17 36.99392 24.73859 33141 ft 542 kts 153°
2026-05-07 16:18 36.96193 24.76336 32498 ft 540 kts 152°
2026-05-07 16:18 36.93006 24.78800 31869 ft 535 kts 152°
2026-05-07 16:18 36.89878 24.81223 31423 ft 521 kts 152°
2026-05-07 16:18 36.86835 24.83589 31179 ft 510 kts 152°
2026-05-07 16:19 36.83849 24.85911 30840 ft 502 kts 152°
2026-05-07 16:19 36.80915 24.88186 30242 ft 502 kts 152°
2026-05-07 16:19 36.77969 24.90468 29758 ft 496 kts 152°
2026-05-07 16:19 36.75055 24.92723 29243 ft 491 kts 152°
2026-05-07 16:20 36.72161 24.94962 28751 ft 485 kts 152°
2026-05-07 16:20 36.69309 24.97165 28305 ft 479 kts 152°
2026-05-07 16:20 36.66503 24.99322 27982 ft 471 kts 152°
2026-05-07 16:20 36.63839 25.01361 27553 ft 466 kts 152°
2026-05-07 16:21 36.61093 25.03458 27052 ft 462 kts 151°
2026-05-07 16:21 36.58357 25.05547 26577 ft 459 kts 151°
2026-05-07 16:21 36.55642 25.07617 26107 ft 456 kts 151°
2026-05-07 16:21 36.52941 25.09678 25632 ft 453 kts 151°
2026-05-07 16:22 36.50260 25.11721 25160 ft 450 kts 150°
2026-05-07 16:22 36.47592 25.13754 24681 ft 448 kts 150°
2026-05-07 16:22 36.44942 25.15772 24202 ft 446 kts 150°
2026-05-07 16:22 36.42299 25.17782 23719 ft 444 kts 150°
2026-05-07 16:23 36.39712 25.19750 23185 ft 441 kts 150°
2026-05-07 16:23 36.37142 25.21703 22691 ft 437 kts 150°
2026-05-07 16:23 36.34564 25.23660 22207 ft 433 kts 150°
2026-05-07 16:23 36.32035 25.25579 21731 ft 430 kts 151°
2026-05-07 16:24 36.29495 25.27504 21274 ft 426 kts 151°
2026-05-07 16:24 36.26977 25.29411 20821 ft 422 kts 151°
2026-05-07 16:24 36.24479 25.31302 20370 ft 419 kts 151°
2026-05-07 16:24 36.21996 25.33180 19918 ft 416 kts 151°
2026-05-07 16:25 36.19542 25.35035 19467 ft 413 kts 151°
2026-05-07 16:25 36.17095 25.36883 19035 ft 410 kts 151°
2026-05-07 16:25 36.14669 25.38713 18588 ft 407 kts 151°
2026-05-07 16:25 36.12230 25.40457 18101 ft 402 kts 156°
2026-05-07 16:26 36.09643 25.41705 17634 ft 396 kts 165°
2026-05-07 16:26 36.07031 25.42737 17180 ft 392 kts 165°
2026-05-07 16:26 36.04470 25.43731 16716 ft 389 kts 165°
2026-05-07 16:26 36.01900 25.44734 16292 ft 386 kts 165°
2026-05-07 16:27 35.99363 25.45735 15857 ft 383 kts 165°
2026-05-07 16:27 35.96831 25.46742 15419 ft 381 kts 164°
2026-05-07 16:27 35.94312 25.47751 14989 ft 379 kts 164°
2026-05-07 16:27 35.91825 25.48750 14556 ft 377 kts 164°
2026-05-07 16:28 35.89326 25.49754 14121 ft 375 kts 164°
2026-05-07 16:28 35.86844 25.50750 13628 ft 375 kts 163°
2026-05-07 16:28 35.84376 25.51741 13173 ft 372 kts 163°
2026-05-07 16:28 35.81936 25.52720 12723 ft 370 kts 163°
2026-05-07 16:29 35.79529 25.53686 12300 ft 367 kts 163°
2026-05-07 16:29 35.77112 25.54654 11885 ft 364 kts 163°
2026-05-07 16:29 35.74711 25.55615 11472 ft 361 kts 163°
2026-05-07 16:29 35.72322 25.56510 11065 ft 358 kts 170°
2026-05-07 16:30 35.69896 25.56497 10905 ft 343 kts 194°
2026-05-07 16:30 35.67679 25.55477 10723 ft 331 kts 212°
2026-05-07 16:30 35.65908 25.53829 10586 ft 319 kts 224°
2026-05-07 16:30 35.64295 25.51998 10438 ft 310 kts 225°
2026-05-07 16:31 35.62734 25.50216 10307 ft 302 kts 225°
2026-05-07 16:31 35.61204 25.48491 10174 ft 295 kts 224°
2026-05-07 16:31 35.59710 25.46789 9929 ft 292 kts 230°
2026-05-07 16:31 35.59385 25.46314 9831 ft 291 kts 237°
2026-05-07 16:32 35.58754 25.44266 9555 ft 285 kts 268°
2026-05-07 16:32 35.59165 25.41938 9282 ft 280 kts 302°
2026-05-07 16:32 35.60411 25.40118 9044 ft 278 kts 310°
2026-05-07 16:32 35.61546 25.38195 8743 ft 279 kts 301°
2026-05-07 16:33 35.62452 25.36080 8465 ft 280 kts 295°
2026-05-07 16:33 35.63219 25.33877 8187 ft 281 kts 292°
2026-05-07 16:33 35.63898 25.31628 7909 ft 281 kts 289°
2026-05-07 16:33 35.64500 25.29336 7630 ft 282 kts 287°
2026-05-07 16:34 35.65000 25.27008 7344 ft 282 kts 283°
2026-05-07 16:34 35.65375 25.24675 7060 ft 281 kts 279°
2026-05-07 16:34 35.65627 25.22291 6788 ft 281 kts 275°
2026-05-07 16:34 35.65755 25.19893 6458 ft 282 kts 271°
2026-05-07 16:35 35.65763 25.17458 6017 ft 286 kts 268°
2026-05-07 16:35 35.65646 25.15020 5697 ft 285 kts 264°
2026-05-07 16:35 35.65408 25.12605 5406 ft 283 kts 261°
2026-05-07 16:35 35.65050 25.10234 5119 ft 281 kts 257°
2026-05-07 16:36 35.64574 25.07908 4839 ft 279 kts 253°
2026-05-07 16:36 35.63989 25.05645 4559 ft 277 kts 250°
2026-05-07 16:36 35.63312 25.03489 4286 ft 275 kts 246°
2026-05-07 16:36 35.62533 25.01366 4111 ft 269 kts 243°
2026-05-07 16:37 35.61472 24.99547 3960 ft 259 kts 215°
2026-05-07 16:37 35.59817 24.98870 3881 ft 253 kts 180°
2026-05-07 16:37 35.58122 24.99388 3800 ft 256 kts 153°
2026-05-07 16:37 35.56587 25.00538 3709 ft 261 kts 147°
2026-05-07 16:38 35.55138 25.01737 3421 ft 270 kts 146°
2026-05-07 16:38 35.53944 25.02725 3213 ft 272 kts 146°
2026-05-07 16:38 35.53467 25.03129 3114 ft 271 kts 146°
2026-05-07 16:38 35.51905 25.04414 2820 ft 269 kts 147°
2026-05-07 16:39 35.50360 25.05645 2528 ft 260 kts 147°
2026-05-07 16:39 35.48863 25.06829 2255 ft 252 kts 147°
2026-05-07 16:39 35.47422 25.07969 2031 ft 239 kts 147°
2026-05-07 16:39 35.46060 25.09043 1782 ft 225 kts 147°
2026-05-07 16:40 35.44771 25.10054 1588 ft 214 kts 147°
2026-05-07 16:40 35.43565 25.10999 1361 ft 199 kts 147°
2026-05-07 16:40 35.42361 25.11629 1168 ft 186 kts 175°
2026-05-07 16:40 35.41156 25.11507 1091 ft 167 kts 186°
2026-05-07 16:41 35.40040 25.11367 1031 ft 156 kts 185°
2026-05-07 16:41 35.38940 25.11252 1056 ft 160 kts 184°
2026-05-07 16:41 35.37830 25.11138 1037 ft 161 kts 184°
2026-05-07 16:41 35.36716 25.11027 992 ft 159 kts 184°
2026-05-07 16:42 35.35625 25.11151 1015 ft 160 kts 163°
2026-05-07 16:42 35.34701 25.11836 864 ft 161 kts 131°
2026-05-07 16:42 35.34306 25.13106 618 ft 158 kts 92°
2026-05-07 16:42 35.34242 25.14382 466 ft 148 kts 95°
2026-05-07 16:43 35.34145 25.15617 297 ft 147 kts 95°
2026-05-07 16:43 35.34060 25.16817 124 ft 142 kts 95°
2026-05-07 16:43 35.33974 25.17954 504 ft 151 kts 95°
2026-05-07 16:43 35.33871 25.19254 1199 ft 165 kts 94°
2026-05-07 16:44 35.34021 25.20236 1505 ft 190 kts 62°
2026-05-07 16:44 35.34495 25.20928 1758 ft 206 kts 38°
2026-05-07 16:44 35.35729 25.21595 2271 ft 181 kts 16°
2026-05-07 16:44 35.36900 25.21993 2292 ft 169 kts 15°
2026-05-07 16:45 35.38030 25.22365 2199 ft 165 kts 15°
2026-05-07 16:45 35.39149 25.22728 2189 ft 184 kts 15°
2026-05-07 16:45 35.40488 25.23161 2524 ft 211 kts 15°
2026-05-07 16:45 35.41938 25.23633 2963 ft 220 kts 15°
2026-05-07 16:46 35.43430 25.24140 2980 ft 226 kts 16°
2026-05-07 16:46 35.45017 25.24714 2998 ft 247 kts 16°
2026-05-07 16:46 35.46680 25.25320 2978 ft 249 kts 17°
2026-05-07 16:46 35.48340 25.25923 2975 ft 248 kts 16°
2026-05-07 16:47 35.49991 25.26521 2980 ft 247 kts 16°
2026-05-07 16:47 35.51631 25.27114 3002 ft 245 kts 16°
2026-05-07 16:47 35.53313 25.27721 3027 ft 260 kts 16°
2026-05-07 16:47 35.55075 25.28357 3007 ft 264 kts 16°
2026-05-07 16:48 35.56819 25.28985 3009 ft 266 kts 16°
2026-05-07 16:48 35.58601 25.29627 3009 ft 268 kts 16°
2026-05-07 16:48 35.60395 25.30274 3009 ft 269 kts 16°
2026-05-07 16:48 35.62239 25.30564 2987 ft 269 kts 350°
2026-05-07 16:49 35.63885 25.29600 2991 ft 266 kts 315°
2026-05-07 16:49 35.64837 25.27683 3015 ft 264 kts 289°
2026-05-07 16:49 35.65381 25.25525 3004 ft 264 kts 282°
2026-05-07 16:49 35.65659 25.23290 2998 ft 265 kts 274°
2026-05-07 16:50 35.65737 25.21093 2998 ft 264 kts 270°
2026-05-07 16:50 35.65726 25.18833 3000 ft 264 kts 268°
2026-05-07 16:50 35.65659 25.16577 2998 ft 264 kts 266°
2026-05-07 16:50 35.65509 25.14323 2999 ft 264 kts 263°
2026-05-07 16:51 35.65257 25.12086 2994 ft 264 kts 259°
2026-05-07 16:51 35.64901 25.09877 2995 ft 263 kts 256°
2026-05-07 16:51 35.64443 25.07699 2997 ft 263 kts 253°
2026-05-07 16:51 35.63845 25.05583 2989 ft 262 kts 240°
2026-05-07 16:52 35.62577 25.04083 3002 ft 260 kts 204°
2026-05-07 16:52 35.60827 25.03603 3017 ft 259 kts 185°
2026-05-07 16:52 35.59021 25.03442 3005 ft 260 kts 184°
2026-05-07 16:52 35.57211 25.03287 3002 ft 260 kts 184°
2026-05-07 16:53 35.55652 25.03144 3000 ft 252 kts 184°
2026-05-07 16:53 35.53967 25.03155 2981 ft 234 kts 166°
2026-05-07 16:53 35.52512 25.03892 2834 ft 221 kts 149°
2026-05-07 16:53 35.51262 25.04867 2715 ft 209 kts 147°
2026-05-07 16:54 35.50067 25.05834 2486 ft 203 kts 147°
2026-05-07 16:54 35.48902 25.06771 2271 ft 197 kts 147°
2026-05-07 16:54 35.47765 25.07677 2066 ft 190 kts 147°
2026-05-07 16:54 35.46678 25.08542 1883 ft 182 kts 147°
2026-05-07 16:55 35.45608 25.09389 1725 ft 184 kts 147°
2026-05-07 16:55 35.44527 25.10240 1555 ft 186 kts 147°
2026-05-07 16:55 35.43458 25.11079 1364 ft 177 kts 147°
2026-05-07 16:55 35.42351 25.11569 1174 ft 167 kts 181°
2026-05-07 16:56 35.41187 25.11382 1197 ft 172 kts 185°
2026-05-07 16:56 35.40012 25.11233 1105 ft 167 kts 185°
2026-05-07 16:56 35.37754 25.10958 1095 ft 163 kts 185°
2026-05-07 16:57 35.36994 25.10871 1044 ft 162 kts 185°
2026-05-07 16:57 35.35881 25.10875 847 ft 161 kts 165°
2026-05-07 16:57 35.34833 25.12015 612 ft 154 kts 119°
2026-05-07 16:57 35.34376 25.13192 502 ft 153 kts 108°
2026-05-07 16:58 35.34214 25.14472 403 ft 153 kts 93°
2026-05-07 16:58 35.34165 25.15341 310 ft 154 kts 95°
2026-05-07 16:58 35.34073 25.16607 138 ft 155 kts 94°
2026-05-07 16:58 35.34004 25.17646 91 ft 140 kts 97°
2026-05-07 16:59 35.33958 25.18351 92 ft 98 kts 96°
2026-05-07 16:59 35.33938 25.18693 90 ft 67 kts 97°
2026-05-07 16:59 35.33906 25.19046 89 ft 2 kts 95°
2026-05-07 16:59 35.33910 25.19051 89 ft 2 kts 47°